Location: Newark
(53.2053°N, 5.8147°E)
Time: 00:33:00
(UTC+00:00)

N. Korean satellite - Visible Passes

Search period start: 21 September 2019 00:00
Search period end: 01 October 2019 00:00
Orbit: 455 x 509 km, 97.2° (Epoch: 20 September)

Date Brightness Start Highest point End Pass type
(mag) Time Alt. Az. Time Alt. Az. Time Alt. Az.
21 Sep 10.0 04:33:57 10° ENE 04:35:40 13° E 04:37:23 10° ESE visible
24 Sep 9.7 04:50:56 10° NE 04:53:33 20° E 04:56:08 10° SE visible
25 Sep 10.3 04:26:59 10° ENE 04:28:03 11° E 04:29:08 10° ESE visible
28 Sep 9.8 04:43:35 10° NE 04:45:55 17° E 04:48:15 10° SE visible
